******************************************************************************* JPL/HORIZONS 393 Lampetia (A894 VC) 2025-Dec-12 18:02:48 Rec #: 393 (+COV) Soln.date: 2025-Nov-26_22:35:05 # obs: 6076 (1903-2025) IAU76/J2000 helio. ecliptic osc. elements (au, days, deg., period=Julian yrs): EPOCH= 2457896.5 ! 2017-May-23.00 (TDB) Residual RMS= .18161 EC= .3312127086892561 QR= 1.857997702480479 TP= 2458477.471393283 OM= 212.452774078317 W= 90.7804273748449 IN= 14.87942566445768 A= 2.778159403775487 MA= 236.3417542651159 ADIST= 3.698321105070494 PER= 4.63067 N= .212847392 ANGMOM= .027053768 DAN= 2.4846 DDN= 2.46228 L= 303.2602749 B= 14.8780135 MOID= .91380697 TP= 2018-Dec-24.9713932830 Asteroid physical parameters (km, seconds, rotational period in hours): GM= n.a. RAD= 58.0955 ROTPER= 38.455 H= 8.38 G= .150 B-V= .740 ALBEDO= .022 STYP= Xc ASTEROID comments: 1: soln ref.= JPL#144, OCC=0 radar( 1 delay, 0 Dop.) 2: source=ORB ******************************************************************************* ******************************************************************************* Ephemeris / WWW_USER Fri Dec 12 18:02:48 2025 Pasadena, USA / Horizons ******************************************************************************* Target body name: 393 Lampetia (A894 VC) {source: JPL#144} Center body name: Earth (399) {source: DE441} Center-site name: GEOCENTRIC ******************************************************************************* Start time : A.D. 2023-Jul-01 00:00:00.0000 UT Stop time : A.D. 2023-Jul-15 00:00:00.0000 UT Step-size : 360 minutes ******************************************************************************* Target pole/equ : undefined Target radii : 58.096 km Center geodetic : 0.0, 0.0, -6378.137 {E-lon(deg),Lat(deg),Alt(km)} Center cylindric: 0.0, 0.0, 0.0 {E-lon(deg),Dxy(km),Dz(km)} Center pole/equ : ITRF93 {East-longitude positive} Center radii : 6378.137, 6378.137, 6356.752 km {Equator_a, b, pole_c} Target primary : Sun Vis. interferer : MOON (R_eq= 1737.400) km {source: DE441} Rel. light bend : Sun {source: DE441} Rel. lght bnd GM: 1.3271E+11 km^3/s^2 Small-body perts: Yes {source: SB441-N16} Atmos refraction: NO (AIRLESS) RA format : HMS Time format : CAL Calendar mode : Mixed Julian/Gregorian EOP file : eop.251212.p260310 EOP coverage : DATA-BASED 1962-JAN-20 TO 2025-DEC-12. PREDICTS-> 2026-MAR-09 Units conversion: 1 au= 149597870.700 km, c= 299792.458 km/s, 1 day= 86400.0 s Table cut-offs 1: Elevation (-90.0deg=NO ),Airmass (>38.000=NO), Daylight (NO ) Table cut-offs 2: Solar elongation ( 0.0,180.0=NO ),Local Hour Angle( 0.0=NO ) Table cut-offs 3: RA/DEC angular rate ( 0.0=NO ) ******************************************************************************* Initial IAU76/J2000 heliocentric ecliptic osculating elements (au, days, deg.): EPOCH= 2457896.5 ! 2017-May-23.00 (TDB) Residual RMS= .18161 EC= .3312127086892561 QR= 1.857997702480479 TP= 2458477.471393283 OM= 212.452774078317 W= 90.7804273748449 IN= 14.87942566445768 Equivalent ICRF heliocentric cartesian coordinates (au, au/d): X=-3.063843223219830E+00 Y= 1.575100347071929E+00 Z=-1.333943318312510E-01 VX=-1.752121504130620E-03 VY=-7.690048030023284E-03 VZ=-1.715441788949364E-03 Asteroid physical parameters (km, seconds, rotational period in hours): GM= n.a. RAD= 58.0955 ROTPER= 38.455 H= 8.38 G= .150 B-V= .740 ALBEDO= .022 STYP= Xc ******************************************************************************************************************************************* Date__(UT)__HR:MN APmag S-brt r rdot delta deldot S-O-T /r Cnst RNG_3sigma RNGRT_3sig ******************************************************************************************************************************************* $$SOE 2023-Jul-01 00:00 10.494 6.364 1.890813989284 -2.1388631 0.94234780576321 -3.6424207 149.6585 /L Aql 1.5626 0.0000007 2023-Jul-01 06:00 10.492 6.363 1.890505963314 -2.1277529 0.94182743279656 -3.5656192 149.7008 /L Aql 1.5690 0.0000007 2023-Jul-01 12:00 10.490 6.362 1.890199542415 -2.1166315 0.94131814678738 -3.4888467 149.7411 /L Aql 1.5757 0.0000007 2023-Jul-01 18:00 10.488 6.361 1.889894728204 -2.1054990 0.94081994352063 -3.4121036 149.7795 /L Aql 1.5828 0.0000007 2023-Jul-02 00:00 10.486 6.360 1.889591522290 -2.0943553 0.94033281875391 -3.3353899 149.8160 /L Aql 1.5901 0.0000007 2023-Jul-02 06:00 10.484 6.359 1.889289926277 -2.0832005 0.93985676824948 -3.2587055 149.8506 /L Aql 1.5977 0.0000007 2023-Jul-02 12:00 10.482 6.359 1.888989941758 -2.0720348 0.93939178780573 -3.1820500 149.8832 /L Aql 1.6057 0.0000007 2023-Jul-02 18:00 10.480 6.358 1.888691570321 -2.0608580 0.93893787328755 -3.1054229 149.9139 /L Aql 1.6139 0.0000007 2023-Jul-03 00:00 10.478 6.357 1.888394813549 -2.0496703 0.93849502065496 -3.0288234 149.9426 /L Aql 1.6225 0.0000007 2023-Jul-03 06:00 10.477 6.356 1.888099673012 -2.0384717 0.93806322598945 -2.9522506 149.9693 /L Aql 1.6313 0.0000007 2023-Jul-03 12:00 10.475 6.356 1.887806150278 -2.0272623 0.93764248551740 -2.8757034 149.9941 /L Aql 1.6404 0.0000007 2023-Jul-03 18:00 10.474 6.355 1.887514246905 -2.0160422 0.93723279563003 -2.7991806 150.0169 /L Aql 1.6499 0.0000007 2023-Jul-04 00:00 10.472 6.355 1.887223964444 -2.0048113 0.93683415289941 -2.7226809 150.0377 /L Aql 1.6596 0.0000007 2023-Jul-04 06:00 10.471 6.354 1.886935304438 -1.9935697 0.93644655409006 -2.6462030 150.0566 /L Aql 1.6696 0.0000007 2023-Jul-04 12:00 10.469 6.354 1.886648268424 -1.9823175 0.93606999616588 -2.5697454 150.0734 /L Aql 1.6798 0.0000007 2023-Jul-04 18:00 10.468 6.353 1.886362857930 -1.9710548 0.93570447629216 -2.4933068 150.0883 /L Aql 1.6903 0.0000007 2023-Jul-05 00:00 10.467 6.353 1.886079074477 -1.9597815 0.93534999183262 -2.4168858 150.1011 /L Aql 1.7012 0.0000007 2023-Jul-05 06:00 10.465 6.352 1.885796919580 -1.9484978 0.93500654034141 -2.3404812 150.1120 /L Aql 1.7122 0.0000007 2023-Jul-05 12:00 10.464 6.352 1.885516394743 -1.9372036 0.93467411955047 -2.2640916 150.1208 /L Aql 1.7236 0.0000007 2023-Jul-05 18:00 10.463 6.351 1.885237501466 -1.9258991 0.93435272735214 -2.1877162 150.1277 /L Aql 1.7351 0.0000007 2023-Jul-06 00:00 10.462 6.351 1.884960241238 -1.9145843 0.93404236177787 -2.1113541 150.1326 /T Aql 1.7470 0.0000007 2023-Jul-06 06:00 10.461 6.351 1.884684615545 -1.9032593 0.93374302097306 -2.0350044 150.1354 /T Aql 1.7591 0.0000007 2023-Jul-06 12:00 10.460 6.351 1.884410625859 -1.8919241 0.93345470316886 -1.9586669 150.1363 /T Aql 1.7714 0.0000007 2023-Jul-06 18:00 10.459 6.350 1.884138273651 -1.8805787 0.93317740665137 -1.8823411 150.1351 /T Aql 1.7840 0.0000007 2023-Jul-07 00:00 10.458 6.350 1.883867560379 -1.8692232 0.93291112972889 -1.8060270 150.1319 /T Aql 1.7968 0.0000007 2023-Jul-07 06:00 10.458 6.350 1.883598487495 -1.8578577 0.93265587069783 -1.7297249 150.1268 /T Aql 1.8098 0.0000007 2023-Jul-07 12:00 10.457 6.350 1.883331056445 -1.8464822 0.93241162780784 -1.6534352 150.1196 /T Aql 1.8231 0.0000007 2023-Jul-07 18:00 10.456 6.350 1.883065268665 -1.8350967 0.93217839922677 -1.5771585 150.1105 /T Aql 1.8365 0.0000007 2023-Jul-08 00:00 10.456 6.350 1.882801125584 -1.8237014 0.93195618300587 -1.5008959 150.0994 /T Aql 1.8502 0.0000007 2023-Jul-08 06:00 10.455 6.350 1.882538628622 -1.8122963 0.93174497704583 -1.4246484 150.0862 /T Aql 1.8641 0.0000007 2023-Jul-08 12:00 10.455 6.350 1.882277779194 -1.8008814 0.93154477906391 -1.3484175 150.0711 /T Aql 1.8783 0.0000007 2023-Jul-08 18:00 10.455 6.350 1.882018578703 -1.7894568 0.93135558656253 -1.2722047 150.0540 /T Aql 1.8926 0.0000007 2023-Jul-09 00:00 10.454 6.350 1.881761028549 -1.7780225 0.93117739679960 -1.1960119 150.0350 /T Aql 1.9071 0.0000007 2023-Jul-09 06:00 10.454 6.350 1.881505130119 -1.7665787 0.93101020676072 -1.1198409 150.0139 /T Aql 1.9218 0.0000007 2023-Jul-09 12:00 10.454 6.350 1.881250884795 -1.7551253 0.93085401313343 -1.0436940 149.9909 /T Aql 1.9367 0.0000007 2023-Jul-09 18:00 10.454 6.350 1.880998293951 -1.7436624 0.93070881228348 -0.9675735 149.9660 /T Aql 1.9518 0.0000007 2023-Jul-10 00:00 10.454 6.350 1.880747358952 -1.7321901 0.93057460023331 -0.8914817 149.9391 /T Aql 1.9670 0.0000007 2023-Jul-10 06:00 10.454 6.351 1.880498081155 -1.7207084 0.93045137264251 -0.8154214 149.9103 /T Aql 1.9825 0.0000007 2023-Jul-10 12:00 10.454 6.351 1.880250461909 -1.7092173 0.93033912479038 -0.7393951 149.8795 /T Aql 1.9981 0.0000007 2023-Jul-10 18:00 10.454 6.351 1.880004502556 -1.6977170 0.93023785156039 -0.6634057 149.8468 /T Aql 2.0139 0.0000007 2023-Jul-11 00:00 10.454 6.351 1.879760204428 -1.6862075 0.93014754742652 -0.5874561 149.8122 /T Aql 2.0298 0.0000007 2023-Jul-11 06:00 10.454 6.352 1.879517568851 -1.6746889 0.93006820644135 -0.5115491 149.7757 /T Aql 2.0459 0.0000007 2023-Jul-11 12:00 10.454 6.352 1.879276597141 -1.6631611 0.92999982222565 -0.4356879 149.7373 /T Aql 2.0622 0.0000007 2023-Jul-11 18:00 10.455 6.353 1.879037290606 -1.6516243 0.92994238795964 -0.3598754 149.6970 /T Aql 2.0786 0.0000007 2023-Jul-12 00:00 10.455 6.353 1.878799650546 -1.6400785 0.92989589637542 -0.2841149 149.6548 /T Aql 2.0951 0.0000007 2023-Jul-12 06:00 10.455 6.354 1.878563678255 -1.6285238 0.92986033975080 -0.2084095 149.6107 /T Aql 2.1118 0.0000007 2023-Jul-12 12:00 10.456 6.354 1.878329375015 -1.6169603 0.92983570990414 -0.1327624 149.5649 /T Aql 2.1287 0.0000007 2023-Jul-12 18:00 10.457 6.355 1.878096742101 -1.6053879 0.92982199819034 -0.0571768 149.5171 /T Aql 2.1456 0.0000007 2023-Jul-13 00:00 10.457 6.355 1.877865780782 -1.5938067 0.92981919549763 0.0183441 149.4676 /T Aql 2.1627 0.0000007 2023-Jul-13 06:00 10.458 6.356 1.877636492315 -1.5822169 0.92982729224531 0.0937969 149.4162 /T Aql 2.1800 0.0000007 2023-Jul-13 12:00 10.459 6.356 1.877408877952 -1.5706184 0.92984627838223 0.1691785 149.3630 /T Aql 2.1973 0.0000007 2023-Jul-13 18:00 10.459 6.357 1.877182938934 -1.5590114 0.92987614338594 0.2444855 149.3080 /T Aql 2.2148 0.0000007 2023-Jul-14 00:00 10.460 6.358 1.876958676494 -1.5473958 0.92991687626256 0.3197148 149.2513 /T Aql 2.2323 0.0000007 2023-Jul-14 06:00 10.461 6.358 1.876736091859 -1.5357718 0.92996846554719 0.3948630 149.1928 /T Aql 2.2500 0.0000007 2023-Jul-14 12:00 10.462 6.359 1.876515186244 -1.5241394 0.93003089930492 0.4699268 149.1325 /T Aql 2.2678 0.0000007 2023-Jul-14 18:00 10.463 6.360 1.876295960859 -1.5124986 0.93010416513237 0.5449032 149.0705 /T Aql 2.2857 0.0000007 2023-Jul-15 00:00 10.464 6.360 1.876078416903 -1.5008495 0.93018825015974 0.6197887 149.0068 /T Aql 2.3037 0.0000007 $$EOE ******************************************************************************************************************************************* Column meaning: TIME Times PRIOR to 1962 are UT1, a mean-solar time closely related to the prior but now-deprecated GMT. Times AFTER 1962 are in UTC, the current civil or "wall-clock" time-scale. UTC is kept within 0.9 seconds of UT1 using integer leap-seconds for 1972 and later years. Conversion from the internal Barycentric Dynamical Time (TDB) of solar system dynamics to the non-uniform civil UT time-scale requested for output has not been determined for UTC times after the next July or January 1st. Therefore, the last known leap-second is used as a constant over future intervals. Time tags refer to the UT time-scale conversion from TDB on Earth regardless of observer location within the solar system, although clock rates may differ due to the local gravity field and no analog to "UT" may be defined for that location. Any 'b' symbol in the 1st-column denotes a B.C. date. First-column blank (" ") denotes an A.D. date. CALENDAR SYSTEM Mixed calendar mode was active such that calendar dates after AD 1582-Oct-15 (if any) are in the modern Gregorian system. Dates prior to 1582-Oct-5 (if any) are in the Julian calendar system, which is automatically extended for dates prior to its adoption on 45-Jan-1 BC. The Julian calendar is useful for matching historical dates. The Gregorian calendar more accurately corresponds to the Earth's orbital motion and seasons. A "Gregorian-only" calendar mode is available if such physical events are the primary interest. NOTE: "n.a." in output means quantity "not available" at the print-time. STATISTICAL UNCERTAINTIES Output includes formal +/- 3 standard-deviation statistical orbit uncertainty quantities. There is a 99.7% (1-D) or 98.9% (2-D) chance the actual value is within given bounds. These statistical calculations assume observational data errors are random. If there are systematic biases (such as timing, reduction or star-catalog errors), results can be optimistic. Because the epoch covariance is mapped using linearized variational partial derivatives, results can also be optimistic for times far from the solution epoch, particularly for objects having close planetary encounters. 'APmag S-brt' = The asteroids' approximate apparent airless visual magnitude and surface brightness using the standard IAU H-G system magnitude model: APmag = H + 5*log10(delta) + 5*log10(r) - 2.5*log10((1-G)*phi_1 + G*phi_2) For solar phase angles >90 deg, the error could exceed 1 magnitude. For phase angles >120 degrees, output values are rounded to the nearest integer to indicate error could be large and unknown. For Earth-based observers, the estimated dimming due to atmospheric absorption (extinction) is available as a separate, requestable quantity. Surface brightness is the average airless visual magnitude of a square-arcsecond of the illuminated portion of the apparent disk. It is computed only if the target radius is known. Units: MAGNITUDES & MAGNITUDES PER SQUARE ARCSECOND 'r rdot' = The Sun's apparent range ("r", light-time aberrated) and range-rate ("rdot") relative to the target center, as seen by the observer. A positive "rdot" means the target center was moving away from the Sun, negative means moving toward the Sun. Units: AU and KM/S 'delta deldot' = Apparent range ("delta", light-time aberrated) and range-rate ("delta-dot") of the target center relative to the observer. A positive "deldot" means the target center is moving away from the observer, negative indicates movement toward the observer. Units: AU and KM/S 'S-O-T /r' = Sun-Observer-Target apparent SOLAR ELONGATION ANGLE seen from the observers' location at print-time. The '/r' column provides a code indicating the targets' apparent position relative to the Sun in the observers' sky, as described below: Case A: For an observing location on the surface of a rotating body, that body rotational sense is considered: /T indicates target TRAILS Sun (evening sky: rises and sets AFTER Sun) /L indicates target LEADS Sun (morning sky: rises and sets BEFORE Sun) Case B: For an observing point that does not have a rotational model (such as a spacecraft), the "leading" and "trailing" condition is defined by the observers' heliocentric ORBITAL motion: * If continuing in the observers' current direction of heliocentric motion would encounter the targets' apparent longitude first, followed by the Sun's, the target LEADS the Sun as seen by the observer. * If the Sun's apparent longitude would be encountered first, followed by the targets', the target TRAILS the Sun. Two other codes can be output: /* indicates observer is Sun-centered (undefined) /? Target is aligned with Sun center (no lead or trail) The S-O-T solar elongation angle is numerically the minimum separation angle of the Sun and target in the sky in any direction. It does NOT indicate the amount of separation in the leading or trailing directions, which would be defined along the equator of a spherical coordinate system. Units: DEGREES 'Cnst' = Constellation ID; the 3-letter abbreviation for the name of the constellation containing the target centers' astrometric position, as defined by IAU (1930) boundary delineation. See documentation for list of abbreviations. 'RNG_3sigma RNGRT_3sig' = Range and range rate (radial velocity) formal 3-standard-deviation uncertainties. Units: KM, KM/S Computations by ... Solar System Dynamics Group, Horizons On-Line Ephemeris System 4800 Oak Grove Drive, Jet Propulsion Laboratory Pasadena, CA 91109 USA General site: https://ssd.jpl.nasa.gov/ Mailing list: https://ssd.jpl.nasa.gov/email_list.html System news : https://ssd.jpl.nasa.gov/horizons/news.html User Guide : https://ssd.jpl.nasa.gov/horizons/manual.html Connect : browser https://ssd.jpl.nasa.gov/horizons/app.html#/x API https://ssd-api.jpl.nasa.gov/doc/horizons.html command-line telnet ssd.jpl.nasa.gov 6775 e-mail/batch https://ssd.jpl.nasa.gov/ftp/ssd/horizons_batch.txt scripts https://ssd.jpl.nasa.gov/ftp/ssd/SCRIPTS Author : Jon.D.Giorgini@jpl.nasa.gov ******************************************************************************************************************************************* !$$SOF COMMAND = '393' QUANTITIES = '9,19,20,23,29,39' START_TIME = '2023-07-01' STEP_SIZE = '6 hour' STOP_TIME = '2023-07-15'